DMSP 5D-2 F13 DEB, 40497

Orbit data source: Space-Track

DMSP 5D-2 F13 DEB, 40497 is space debris in SSO originally from a launch on Fri, 24 Mar 1995 UTC launched from the Air Force Western Test Range (AFWTR). Debris objects in space refer to the collection of defunct objects orbiting the Earth. Examples of debris include non-operational satellites, rocket bodies, and fragments generated from explosions, collisions, or faulty payload assembly.

Loading next visibility...
Identifier
40497, 1995-015CL
Orbit
SSO
Country
Flag of USUS
Related business
Manufacturer
Unknown
Mission
Spacecraft
Bus & Motor
Unknown
Mass
Unknown
Launch date (UTC)
1995-03-24 (31 years ago)
Launch vehicle
Unknown
Launch site
Air Force Western Test Range (AFWTR)
Object type
Payload
Rocket body
Debris
Shape & HBR
Unknown shape, 0.1 m
Radar Cross Section
Small (<0.1 m²)

Expand to show TLE details & history
Last TLE update: 3 days ago

TLE from 3 days ago
0 DMSP 5D-2 F13 DEB
1 40497U 95015CL  26170.35001112  .00003789  00000-0  11577-2 0  9993
2 40497  98.6739 212.2516 0003105  31.2488 328.8885 14.42451292585714
Epoch: 2026-06-19T08:24Z
TLE epoch observation values (Epoch: 2026-06-19T08:24:00.960Z)
Latitude
-0.00005°
Longitude
178.66736°
Altitude
751.462 km
Speed
7.48 km/s
True Right ascension
14h 09m 00s
True Declination
0° 00' 00"
Sunlit
Object was in full shadow at epoch
Visualization orbit readout
Latitude
Unknown
Longitude
Unknown
Altitude
Unknown
Speed
Unknown
Apparent Right ascension
Unknown
Apparent Declination
Unknown
Sunlit
N/A
Visualization observer readout
Local Sidereal Time
21:43:15
Azimuth
Unknown
Elevation
Unknown
Doppler factor
Unknown
Orbital elements
Apogee altitude
749.75 km
Perigee altitude
745.325 km
Semi-major axis
7,125.675 km
Eccentricity
0.00031
Inclination
98.6739°
RAAN
212.2516°
Arg. of periapsis
31.2488°
True anomaly
328.87011°
Mean anomaly
328.8885°
Eccentric anomaly
328.87931°
Mean motion
3.60831 °/min
Orbital period
99.77 mins
BSTAR
0.0011577

Documentation

Showing up to 5 results
|